This demonstration page uses our WeatherBlox Daily Observations layout. Learn more.

Left ArrowRight Arrow

34.16533, -84.80231

Hourly Observations for April 7, 2022

Temp ( °F °C ) Dew Point ( °F °C ) Humidity (%) Winds ( mph kmh ) Pressure ( in mb ) Visibility ( mi km ) Precip ( " mm )
12:15 am 00:15 Cloudy 64 18 63 17 94 94 VRB 5 7 29.72 1006 10 16 0.00 0.00
12:35 am 00:35 Cloudy 63 17 59 15 88 88 VRB 5 7 29.71 1006 10 16 0.00 0.00
12:55 am 00:55 Cloudy 63 17 59 15 88 88 WNW 9 15 29.73 1007 10 16 0.00 0.00
1:15 am 01:15 Cloudy 61 16 57 14 88 88 VRB 7 11 29.74 1007 10 16 0.00 0.00
1:35 am 01:35 Cloudy 61 16 55 13 83 83 VRB 5 7 29.73 1007 10 16 0.00 0.00
1:55 am 01:55 Cloudy with Light Rain 59 15 55 13 88 88 WNW 9 15 29.76 1008 6 10 0.01 0.25
2:15 am 02:15 Cloudy 59 15 54 12 82 82 WNW 9 15 29.75 1007 10 16 0.00 0.00
2:35 am 02:35 Cloudy 57 14 54 12 88 88 VRB 6 9 29.75 1007 10 16 0.00 0.00
2:55 am 02:55 Cloudy 57 14 54 12 88 88 WNW 10 17 29.76 1008 10 16 0.00 0.00
3:15 am 03:15 Cloudy 57 14 52 11 82 82 WNW 9 15 29.75 1007 10 16 0.00 0.00
3:35 am 03:35 Cloudy 55 13 52 11 88 88 W 9 15 29.75 1007 10 16 0.00 0.00
3:55 am 03:55 Cloudy 55 13 52 11 88 88 W 8 13 29.74 1007 10 16 0.00 0.00
4:15 am 04:15 Cloudy 55 13 50 10 82 82 W 7 11 29.75 1007 10 16 0.00 0.00
4:35 am 04:35 Cloudy 55 13 50 10 82 82 WNW 7 11 29.74 1007 10 16 0.00 0.00
4:55 am 04:55 Cloudy 54 12 50 10 88 88 W 7 11 29.74 1007 10 16 0.00 0.00
5:15 am 05:15 Cloudy 54 12 48 9 82 82 W 7 11 29.74 1007 10 16 0.00 0.00
5:35 am 05:35 Cloudy 54 12 50 10 88 88 W 7 11 29.74 1007 10 16 0.00 0.00
5:55 am 05:55 Cloudy 54 12 50 10 88 88 W 8 13 29.75 1008 10 16 0.00 0.00
6:15 am 06:15 Cloudy 54 12 48 9 82 82 W 8 13 29.75 1008 10 16 0.00 0.00
6:35 am 06:35 Cloudy 54 12 48 9 82 82 W 8 13 29.75 1008 10 16 0.00 0.00
6:55 am 06:55 Cloudy 54 12 48 9 82 82 W 9 15 29.76 1008 10 16 0.00 0.00
7:15 am 07:15 Cloudy 54 12 48 9 82 82 W 10 17 29.78 1009 10 16 0.00 0.00
7:35 am 07:35 Cloudy 54 12 48 9 82 82 W 8 13 29.78 1009 10 16 0.00 0.00
7:55 am 07:55 Mostly Cloudy 54 12 48 9 82 82 W 8 13 29.79 1009 10 16 0.00 0.00
8:15 am 08:15 Sunny 54 12 48 9 82 82 W 7 11 29.80 1009 10 16 0.00 0.00
8:35 am 08:35 Sunny 54 12 48 9 82 82 W 10 17 29.80 1009 10 16 0.00 0.00
8:55 am 08:55 Sunny 55 13 48 9 77 77 W 12 19 29.80 1009 10 16 0.00 0.00
9:15 am 09:15 Sunny 55 13 46 8 72 72 W 8 13 29.80 1009 10 16 0.00 0.00
9:35 am 09:35 Sunny 55 13 46 8 72 72 W 9 15 29.80 1009 10 16 0.00 0.00
9:55 am 09:55 Sunny 57 14 46 8 67 67 W 10 17 29.80 1009 10 16 0.00 0.00
10:15 am 10:15 Sunny 59 15 45 7 59 59 W 14 22 29.81 1009 10 16 0.00 0.00
10:35 am 10:35 Sunny 59 15 45 7 59 59 WNW 10 17 29.81 1009 10 16 0.00 0.00
10:55 am 10:55 Sunny 61 16 45 7 55 55 W 14 22 29.79 1009 10 16 0.00 0.00
11:15 am 11:15 Sunny 61 16 43 6 52 52 WNW 9 15 29.80 1009 10 16 0.00 0.00
11:35 am 11:35 Sunny 61 16 43 6 52 52 W 9 15 29.79 1009 10 16 0.00 0.00
11:55 am 11:55 Sunny 63 17 43 6 49 49 W 8 13 29.79 1009 10 16 0.00 0.00
12:15 pm 12:15 Sunny 64 18 37 3 37 37 W 13 20 29.79 1009 10 16 0.00 0.00
12:35 pm 12:35 Sunny 64 18 36 2 34 34 W 13 20 29.78 1008 10 16 0.00 0.00
12:55 pm 12:55 Sunny 64 18 34 1 32 32 W 20 31 29.78 1008 10 16 0.00 0.00
1:15 pm 13:15 Sunny 64 18 32 0 30 30 W 15 24 29.77 1008 10 16 0.00 0.00
1:35 pm 13:35 Sunny 66 19 27 -3 22 22 W 25 41 29.77 1008 10 16 0.00 0.00
1:55 pm 13:55 Sunny 66 19 30 -1 26 26 W 16 26 29.76 1008 10 16 0.00 0.00
2:15 pm 14:15 Mostly Sunny 66 19 30 -1 26 26 W 13 20 29.76 1008 10 16 0.00 0.00
2:35 pm 14:35 Partly Cloudy 64 18 28 -2 26 26 W 13 20 29.75 1007 10 16 0.00 0.00
2:55 pm 14:55 Mostly Sunny 66 19 28 -2 24 24 W 13 20 29.74 1007 10 16 0.00 0.00
3:15 pm 15:15 Sunny 66 19 30 -1 26 26 W 16 26 29.74 1007 10 16 0.00 0.00
3:35 pm 15:35 Mostly Sunny 68 20 30 -1 24 24 W 14 22 29.73 1007 10 16 0.00 0.00
3:55 pm 15:55 Partly Cloudy 68 20 30 -1 24 24 W 16 26 29.72 1007 10 16 0.00 0.00
4:15 pm 16:15 Partly Cloudy 68 20 30 -1 24 24 W 16 26 29.72 1007 10 16 0.00 0.00
4:35 pm 16:35 Mostly Sunny 66 19 30 -1 26 26 W 10 17 29.73 1007 10 16 0.00 0.00
4:55 pm 16:55 Partly Cloudy 66 19 30 -1 26 26 WNW 15 24 29.72 1006 10 16 0.00 0.00
5:15 pm 17:15 Mostly Sunny 66 19 30 -1 26 26 W 13 20 29.73 1007 10 16 0.00 0.00
5:35 pm 17:35 Mostly Sunny 66 19 30 -1 26 26 W 14 22 29.73 1007 10 16 0.00 0.00
5:55 pm 17:55 Mostly Sunny 66 19 30 -1 26 26 W 18 30 29.73 1007 10 16 0.00 0.00
6:15 pm 18:15 Mostly Sunny 66 19 32 0 28 28 W 15 24 29.74 1007 10 16 0.00 0.00
6:35 pm 18:35 Sunny 64 18 32 0 30 30 W 12 19 29.74 1007 10 16 0.00 0.00
6:55 pm 18:55 Sunny 64 18 32 0 30 30 W 14 22 29.75 1007 10 16 0.00 0.00
7:15 pm 19:15 Sunny 63 17 32 0 32 32 W 15 24 29.76 1008 10 16 0.00 0.00
7:35 pm 19:35 Sunny 63 17 34 1 34 34 W 10 17 29.76 1008 10 16 0.00 0.00
7:55 pm 19:55 Sunny 61 16 32 0 34 34 W 14 22 29.77 1008 10 16 0.00 0.00
8:15 pm 20:15 Partly Cloudy 59 15 34 1 39 39 W 10 17 29.79 1009 10 16 0.00 0.00
8:35 pm 20:35 Mostly Cloudy 59 15 34 1 39 39 WNW 8 13 29.80 1009 10 16 0.00 0.00
8:55 pm 20:55 Mostly Cloudy 59 15 32 0 36 36 WNW 12 19 29.82 1010 10 16 0.00 0.00
9:15 pm 21:15 Mostly Cloudy 57 14 30 -1 36 36 W 9 15 29.83 1010 10 16 0.00 0.00
9:35 pm 21:35 Mostly Cloudy 57 14 28 -2 33 33 W 10 17 29.84 1010 10 16 0.00 0.00
9:55 pm 21:55 Mostly Cloudy 55 13 28 -2 36 36 W 9 15 29.85 1011 10 16 0.00 0.00
10:15 pm 22:15 Mostly Cloudy 55 13 28 -2 36 36 W 8 13 29.86 1011 10 16 0.00 0.00
10:35 pm 22:35 Mostly Cloudy 54 12 28 -2 38 38 WSW 7 11 29.87 1012 10 16 0.00 0.00
10:55 pm 22:55 Partly Cloudy 54 12 30 -1 41 41 W 6 9 29.87 1012 10 16 0.00 0.00
11:15 pm 23:15 Partly Cloudy 52 11 32 0 47 47 Calm 29.88 1012 10 16 0.00 0.00
11:35 pm 23:35 Mostly Clear 52 11 30 -1 44 44 WSW 5 7 29.87 1011 10 16 0.00 0.00
11:55 pm 23:55 Partly Cloudy 50 10 30 -1 47 47 Calm 29.87 1011 10 16 0.00 0.00

Powered by AerisWeather